Location: Biharia
(46.4333°N, 22.8000°E)
Time: 01:49:37
(UTC+00:00)

Cosmos 1980 Rocket - Pass Details

Date: 16 October 2021
Orbit: 828 x 851 km, 71.0° (Epoch: 02 December)

Event Time Altitude Azimuth Distance (km) Brightness Sun altitude
Rises 17:15:41 0° 206° (SSW) 3,376 5.6 -17.2°
Reaches altitude 10° 17:18:06 10° 206° (SSW) 2,449 4.9 -17.6°
Maximum altitude 17:23:44 86° 296° (WNW) 852 2.2 -18.6°
Drops below altitude 10° 17:29:27 10° 26° (NNE) 2,480 4.4 -19.5°
Sets 17:31:55 0° 27° (NNE) 3,422 5.2 -20.0°
